Regional Weather Roundup
Issued by NWS

Home | Current Version | Previous Version | Graphics & Text | Print | Product List | Glossary On
Versions: 1 2 3 4 5 6 7 8 9 10 11 12 13 14 15 16 17 18 19 20 21 22 23 24 25 26 27 28 29 30 31 32 33 34 35 36 37 38 39 40 41 42 43 44 45 46 47 48 49 50
535
ASUS45 KTFX 262010
RWRMT
MONTANA REGIONAL WEATHER ROUNDUP
NATIONAL WEATHER SERVICE GREAT FALLS MT
200 PM MDT FRI AUG 26 2016

NOTE: "FAIR" INDICATES FEW OR NO CLOUDS BELOW 12000 FEET WITH NO
SIGNIFICANT WEATHER AND/OR OBSTRUCTIONS TO VISIBILITY.

MTZ001>007-043-262100-
WEST OF THE DIVIDE

CITY           SKY/WX    TMP DP  RH WIND       PRES   REMARKS
KALISPELL      MOSUNNY   72  42  34 N9        30.01F
MISSOULA       PTSUNNY   74  34  23 VRB3      30.03F
BUTTE          CLOUDY    67  30  25 CALM      30.09F
MULLAN PASS    PTSUNNY   65  34  31 N7        30.13F
DEER LODGE       N/A     70  34  26 E6        30.08F
EUREKA           N/A     73  39  29 E8        30.00F
HAMILTON         N/A     70  36  28 N5        30.03F
LIBBY            N/A     75  41  29 E3        29.98F
PLAINS           N/A     78  40  25 CALM      30.00F
RONAN            N/A     72  40  31 SW5       30.07F
$$

MTZ008-052>055-262100-
SOUTHWEST MONTANA

CITY           SKY/WX    TMP DP  RH WIND       PRES   REMARKS
BOZEMAN        SUNNY     69  36  29 MISG      30.06F
DILLON         SUNNY     66  34  30 VRB3      30.06F
W YELLOWSTONE  CLOUDY    64  27  24 NW13G20   30.11F
ENNIS          SUNNY     66  30  26 CALM      30.12F
THREE FORKS      N/A     69 -45   1 NE3       30.05F
TWIN BRIDGES     N/A     69  31  24 SE3       30.05F
$$

MTZ009-010-012-014-046-048-049-054-262100-
EAST SLOPES AND CENTRAL MONTANA

CITY           SKY/WX    TMP DP  RH WIND       PRES   REMARKS
CUT BANK       PTSUNNY   67  38  34 W7        30.04F
GREAT FALLS    MOSUNNY   66  43  43 VRB5      30.06F
MALMSTROM AFB  MOSUNNY   64  43  46 NE3       30.06F
HELENA         SUNNY     72  39  30 VRB3      30.03F
CHOTEAU          N/A     68  41  37 S5        30.07F
CONRAD           N/A     68  47  46 NE3       30.07F
$$

MTZ011-013-016-021-045-047-050-051-262100-
NORTH CENTRAL MONTANA

CITY           SKY/WX    TMP DP  RH WIND       PRES   REMARKS
HAVRE          PTSUNNY   65  46  50 SW9       30.02F
LEWISTOWN      CLOUDY    63  44  50 N7        30.08F
N BAR RANCH    PTSUNNY   63  41  45 N3        30.10S
CHINOOK          N/A     66  46  48 SW9       30.02F
$$

MTZ017>020-022>027-061-062-262100-
NORTHEAST MONTANA

CITY           SKY/WX    TMP DP  RH WIND       PRES   REMARKS
GLASGOW        CLOUDY    71  45  39 W17       29.98F
JORDAN           N/A     71  43  36 MISG      30.02F
SIDNEY         PTSUNNY   78  45  30 S12       29.97F
WOLF POINT     SUNNY     74  46  36 W14G24    29.97F
POPLAR           N/A     72  45  37 SW12G21   29.97F
SCOBEY           N/A     69  43  39 W13       29.96F
$$

MTZ028>42-056>058-262100-
SOUTHCENTRAL AND SOUTHEAST MONTANA

CITY           SKY/WX    TMP DP  RH WIND       PRES   REMARKS
BAKER          SUNNY     71  45  39 CALM      30.04F
BILLINGS       MOSUNNY   70  38  31 VRB3      30.04F
LIVINGSTON     MOSUNNY   72  33  24 VRB3      30.04F
MILES CITY     SUNNY     74  36  25 VRB7      30.00F
EKALAKA          N/A     68  48  48 E9        30.03F
FORSYTH          N/A     73  37  27 W8        30.01F
LAUREL           N/A     70  38  31 E2        30.03F
ROUNDUP          N/A     71  39  31 E5        29.96F
$$

REGIONAL REPORTS...DAKOTAS

CITY           SKY/WX    TMP DP  RH WIND       PRES   REMARKS
WILLISTON      CLOUDY    77  38  24 SW12      29.96F
MINOT          CLOUDY    75  43  31 S14G24    29.97F
DICKINSON      CLOUDY    63  49  60 S7        30.01F
CROSBY           N/A     75  41  29 SW12G17   29.98F
WATFORD CITY     N/A     73  37  27 SW9       29.98F
BISMARCK       SUNNY     72  48  42 S18G24    30.06F
GRAND FORKS    CLOUDY    76  52  43 S15       30.03F
FARGO          MOSUNNY   75  49  39 SW13      30.08F
BUFFALO SD       N/A     61  53  75 NE12      30.01F
RAPID CITY     MOSUNNY   63  54  72 S8        30.07F
$$

REGIONAL REPORTS...WYOMING/IDAHO/WASHINGTON

CITY           SKY/WX    TMP DP  RH WIND       PRES   REMARKS
GILLETTE       PTSUNNY   70  41  34 CALM      30.05F
SHERIDAN       SUNNY     70  42  36 VRB5      30.05F
BUFFALO WY     MOSUNNY   69  38  32 MISG      30.10F
CODY           SUNNY     63  39  42 N3        30.08F
YELLOWSTONE LA   N/A     55  41  59 CALM      30.20F
IDAHO FALLS    CLOUDY    73  32  22 SW13      30.04F
SALMON         SUNNY     72  34  25 NW6       30.00F
BOISE          SUNNY     81  36  19 NW5       29.98F
SPOKANE        PTSUNNY   80  36  20 S6        29.97F
$$

REGIONAL REPORTS...ALBERTA

CITY           SKY/WX    TMP DP  RH WIND       PRES   REMARKS
EDMONTON       MOSUNNY   68  50  52 S5        29.90F
CALGARY        CLOUDY    66  45  45 S8        29.97F
LETHBRIDGE     PTSUNNY   70  41  35 W6G17     29.99F
MEDICINE HAT   PTSUNNY   66  48  52 SW8       29.99F
MILK RIVER       N/A     66  39  37 NW3         N/A
$$

REGIONAL REPORTS...SASKATCHEWAN

CITY           SKY/WX    TMP DP  RH WIND       PRES   REMARKS
SWIFT CURRENT  MOSUNNY   63  50  63 W14G20    29.96F
REGINA         PTSUNNY   63  52  67 W21       29.91F
SASKATOON      PTSUNNY   66  50  55 NW13      29.92F
CYPRESS HILLS    N/A     57  43  58 NW8G17      N/A
VAL MARIE        N/A     64  43  45 NW12G17     N/A
ROCKGLEN         N/A     63  48  59 W15         N/A
ASSINIBOIA       N/A     68  45  42 SW6         N/A
$$




USA.gov is the U.S. government's official web portal to all federal, state and local government web resources and services.